STARLINK-32455, 61632

Orbit data source: Space-Track

STARLINK-32455, 61632 is a payload satellite owned by SpaceX/Seattle (US) in LEO that was launched on Wed, 23 Oct 2024 UTC via an FALCON 9 launch vehicle from the Air Force Eastern Test Range (AFETR). Payload-class satellites include a variety of spacecraft equipped with specific instruments for various scientific and technological missions. These include communications satellites like Starlink; space stations such as the ISS; scientific satellites like the Hubble; Earth observation satellites from companies like Planet Labs, Umbra, and HawkEye 360; GPS; miniature CubeSats for education and research; and military/defense satellites.

Loading next visibility...
Identifier
61632, 2024-191M
Orbit
LEO
Last TLE update
8 hours ago
Origin
Manufacturer
SpaceX/Seattle
Mission
Operational Commercial Communications
Bus & Motor
STARLINK V2M, Unknown motor
Mass
730 kg wet, ~700 kg dry
Launch date (UTC)
2024-10-23 (8 months ago)
Launch vehicle
FALCON 9
Launch site
Air Force Eastern Test Range (AFETR)
Object type
Payload
Rocket body
Debris
Shape & HBR
Box + 2 Pan, 29 m
Radar Cross Section
36.964 m², Large (>1 m²)

Expand to show TLE details & history

TLE from 8 hours ago
0 STARLINK-32455
1 61632U 24191M   25169.79411829  .00000331  00000-0  21571-4 0  9996
2 61632  43.0001 208.5978 0001526 277.3759  82.6919 15.27582562 37841
Epoch: 2025-06-18T19:03Z
TLE epoch observation values (Epoch: 2025-06-18T19:03:31.82Z)
Latitude
-0.00002°
Longitude
15.44415°
Altitude
482.684 km
Speed
7.626 km/s
True Right ascension
13h 54m 23s
True Declination
0° 00' 00"
Sunlit
Object was in full shadow at epoch
Visualization orbit readout
Latitude
30.02038°
Longitude
51.58915°
Altitude
484.255 km
Speed
7.627 km/s
Apparent Right ascension
20h 00m 47s
Apparent Declination
-10° 43' 44"
Sunlit
Object is in full shadow
Visualization observer readout
Local Sidereal Time
13:56:30
Azimuth
97.597° ESE
Elevation
-7.672°
Doppler factor
1
Orbital elements
Apogee altitude
486.034 km
Perigee altitude
483.939 km
Semi-major axis
6,863.124 km
Eccentricity
0.00015
Inclination
43.0001°
RAAN
208.5978°
Arg. of periapsis
277.3759°
True anomaly
Unknown
Mean anomaly
82.6919°
Eccentric anomaly
Unknown
Mean motion
3.81734 °/min
Orbital period
94.31 mins
BSTAR
0.000021571
Loading maneuver chart data...
Loading SW <> Apogee altitude chart data...
Loading historical data...
Loading historical data...
Loading historical data...
Loading historical data...
Loading historical data...
Loading historical data...
Loading historical data...

STARLINK-32455 Visibility forecast

Observer location: undefined°, undefined°

Span
Click to sort rows by Start time (UTC) header in descending order
Start Az.
Max El. time (UTC)
Max El. Az.
Max El.
End time (UTC)
End Az.
6 mins2025-06-19 06:15:34.532Z226.231° WSW2025-06-19 06:18:34.532Z158.328° S36.941°2025-06-19 06:21:34.532Z81.521° E
5 mins2025-06-19 07:55:34.532Z277.479° WNW2025-06-19 07:57:34.532Z348.446° N40.812°2025-06-19 08:00:34.532Z68.901° E
5 mins2025-06-19 09:34:34.532Z295.107° NW2025-06-19 09:36:34.532Z349.045° N39.685°2025-06-19 09:39:34.532Z84.94° E
5 mins2025-06-19 11:13:34.532Z275.65° WNW2025-06-19 11:15:34.532Z220.832° SW38.56°2025-06-19 11:18:34.532Z131.63° SE
|